Location: Engelmannsreuth
(49.8125°N, 11.6497°E)
Time: 17:04:13
(UTC+00:00)

STARLINK-1133 - Visible Passes

Search period start: 04 August 2021 00:00
Search period end: 14 August 2021 00:00
Orbit: 546 x 548 km, 53.1° (Epoch: 04 August)

Date Brightness Start Highest point End Pass type
(mag) Time Alt. Az. Time Alt. Az. Time Alt. Az.
04 Aug 4.3 00:01:53 12° W 00:05:36 55° N 00:09:41 10° ENE visible
04 Aug 3.9 01:41:20 10° WNW 01:45:28 68° NNE 01:49:35 10° E visible
04 Aug 5.4 20:42:37 16° E 20:42:37 16° E 20:43:51 10° E visible
04 Aug 3.5 22:17:52 34° WSW 22:19:36 89° SSE 22:23:46 10° ENE visible
04 Aug 4.3 23:55:19 10° W 23:59:23 53° N 00:03:26 10° ENE visible
05 Aug 3.7 01:35:04 10° WNW 01:39:13 76° NNE 01:43:20 10° ESE visible
05 Aug 4.3 20:30:25 10° SSW 20:34:03 31° SE 20:37:43 10° ENE visible
05 Aug 3.6 22:09:11 10° WSW 22:13:19 80° NNW 22:17:28 10° ENE visible
05 Aug 4.3 23:49:04 10° WNW 23:53:08 53° N 23:57:12 10° E visible
06 Aug 3.6 01:28:46 10° WNW 01:32:55 86° NNE 01:37:04 10° ESE visible
06 Aug 4.5 03:08:36 10° W 03:12:07 27° SW 03:15:38 10° SSE visible
06 Aug 4.0 20:23:49 10° SSW 20:27:39 38° SE 20:31:30 10° ENE visible
06 Aug 3.8 22:02:54 10° WSW 22:07:02 71° NNW 22:11:10 10° ENE visible
06 Aug 4.3 23:42:49 10° WNW 23:46:53 54° N 23:50:57 10° E visible
07 Aug 3.5 01:22:28 10° WNW 01:26:37 82° SSW 01:30:45 10° ESE visible
07 Aug 4.8 03:02:29 10° W 03:05:42 22° SW 03:08:53 10° S visible
07 Aug 3.8 20:17:18 10° SW 20:21:16 47° SSE 20:25:15 10° ENE visible
07 Aug 4.0 21:56:38 10° W 22:00:45 64° NNW 22:04:52 10° ENE visible
07 Aug 4.2 23:36:32 10° WNW 23:40:38 56° N 23:44:41 10° E visible
08 Aug 3.4 01:16:09 10° WNW 01:20:17 69° SSW 01:24:23 10° SE visible
08 Aug 5.1 02:56:29 10° W 02:59:14 17° SW 03:01:58 10° S visible
08 Aug 3.6 20:10:50 10° SW 20:14:53 58° SSE 20:18:57 10° ENE visible
08 Aug 4.1 21:50:22 10° W 21:54:28 59° N 21:58:34 10° ENE visible
08 Aug 4.1 23:30:15 10° WNW 23:34:21 59° N 23:38:26 10° E visible
09 Aug 3.6 01:09:51 10° WNW 01:13:54 57° SSW 01:17:58 10° SE visible
09 Aug 5.3 02:50:40 10° W 02:52:44 14° SW 02:54:48 10° SSW visible
09 Aug 3.5 20:04:25 10° SW 20:08:31 70° SSE 20:12:38 10° ENE visible
09 Aug 4.2 21:44:06 10° W 21:48:11 56° N 21:52:16 10° ENE visible
09 Aug 3.9 23:23:56 10° WNW 23:28:03 65° NNE 23:28:14 64° NNE visible
10 Aug 6.1 01:03:33 10° WNW 01:03:43 11° WNW 01:03:43 11° WNW visible
10 Aug 3.5 19:58:01 10° WSW 20:02:10 82° SSE 20:06:19 10° ENE visible
10 Aug 4.3 21:37:49 10° W 21:41:53 54° N 21:45:23 14° ENE visible
10 Aug 4.2 23:17:35 10° WNW 23:20:55 53° NW 23:20:55 53° NW visible
11 Aug 3.6 19:51:40 10° WSW 19:55:48 86° NNW 19:59:57 10° ENE visible
11 Aug 4.3 21:31:32 10° W 21:35:35 53° N 21:38:27 18° ENE visible
11 Aug 4.6 23:11:15 10° WNW 23:14:00 40° WNW 23:14:00 40° WNW visible
12 Aug 3.8 19:45:19 10° WSW 19:49:27 76° NNW 19:53:36 10° ENE visible
12 Aug 4.3 21:25:13 10° WNW 21:29:17 53° N 21:31:41 23° ENE visible
12 Aug 4.9 23:04:53 10° WNW 23:07:14 33° WNW 23:07:14 33° WNW visible
13 Aug 4.0 19:38:59 10° W 19:43:06 68° NNW 19:47:14 10° ENE visible
13 Aug 4.2 21:18:54 10° WNW 21:22:58 55° N 21:25:00 27° ENE visible
13 Aug 5.2 22:58:31 10° WNW 23:00:33 28° WNW 23:00:33 28° WNW visible
